This demonstration page uses our WeatherBlox Daily Observations layout. Learn more.

Left ArrowRight Arrow

Hourly Observations for July 31, 2021

Temp ( °F °C ) Dew Point ( °F °C ) Humidity (%) Winds ( mph kmh ) Pressure ( in mb ) Visibility ( mi km ) Precip ( " mm )
12:15 am 00:15 Mostly Cloudy 77 24.8 73 23 90 90 ENE 7 11 29.92 1013 10 16 N/A
12:35 am 00:35 Mostly Cloudy 79 26.3 70 20.9 72 72 E 5 7 29.91 1013 10 16 N/A
12:55 am 00:55 Clear 78 25.4 69 20.3 73 73 ENE 6 9 29.89 1012 10 16 N/A
1:15 am 01:15 Clear with Mist and Fog 76 24.7 74 23.6 94 94 NNE 12 19 29.92 1013 5 8 N/A
1:35 am 01:35 Cloudy with Mist and Fog 77 24.9 75 24.1 95 95 NE 16 26 29.93 1013 2 3 N/A
1:55 am 01:55 Cloudy with Mist and Fog 73 22.9 71 21.9 94 94 NNE 22 35 29.96 1015 3 5 N/A
2:15 am 02:15 Cloudy with Mist and Fog 72 22.2 70 21 93 93 NNE 16 26 29.97 1015 5 8 N/A
2:35 am 02:35 Mostly Cloudy with Mist and Fog 71 21.7 69 20.4 92 92 NE 14 22 29.97 1015 5 8 N/A
2:55 am 02:55 Cloudy with Mist and Fog 71 21.5 68 20 91 91 NE 16 26 29.97 1015 5 8 N/A
3:15 am 03:15 Cloudy with Mist and Fog 69 20.8 67 19.6 93 93 ENE 10 17 29.99 1016 4 6 N/A
3:35 am 03:35 Mostly Cloudy with Mist and Fog 69 20.6 67 19.6 94 94 ENE 8 13 29.99 1016 4 6 N/A
3:55 am 03:55 Partly Cloudy with Mist and Fog 69 20.6 67 19.7 95 95 ENE 6 9 29.99 1016 4 6 N/A
4:15 am 04:15 Mostly Cloudy with Mist and Fog 69 20.7 68 19.8 95 95 NE 5 7 30.00 1016 4 6 N/A
4:35 am 04:35 Mostly Cloudy with Mist and Fog 69 20.6 67 19.7 95 95 NE 6 9 29.99 1016 5 8 N/A
4:55 am 04:55 Partly Cloudy with Mist and Fog 69 20.5 67 19.6 95 95 NE 7 11 30.00 1016 5 8 N/A
5:15 am 05:15 Mostly Cloudy with Mist and Fog 69 20.5 67 19.5 94 94 NNE 7 11 30.00 1016 4 6 N/A
5:35 am 05:35 Mostly Cloudy with Mist and Fog 69 20.5 67 19.4 93 93 NE 8 13 30.00 1016 5 8 N/A
5:55 am 05:55 Partly Cloudy with Mist and Fog 68 20.2 66 19.1 93 93 ENE 7 11 30.01 1016 5 8 N/A
6:15 am 06:15 Mostly Cloudy with Mist and Fog 68 20.1 67 19.2 95 95 NNE 7 11 30.03 1017 5 8 N/A
6:35 am 06:35 Mostly Cloudy with Mist and Fog 68 20 66 19.1 95 95 ENE 6 9 30.03 1017 5 8 N/A
6:55 am 06:55 Mostly Cloudy with Mist and Fog 68 20 67 19.2 95 95 ENE 5 7 30.03 1017 5 8 N/A
7:15 am 07:15 Cloudy with Mist and Fog 68 20.2 67 19.3 95 95 N 6 9 30.04 1017 3 5 N/A
7:35 am 07:35 Cloudy with Mist and Fog 69 20.3 67 19.5 95 95 N 8 13 30.04 1017 3 5 N/A
7:55 am 07:55 Cloudy with Mist and Fog 69 20.6 68 19.8 95 95 N 9 15 30.05 1018 4 6 N/A
8:15 am 08:15 Cloudy with Mist and Fog 69 20.7 67 19.7 94 94 N 10 17 30.06 1018 5 8 N/A
8:35 am 08:35 Cloudy with Mist and Fog 69 20.7 67 19.7 94 94 N 12 19 30.07 1018 5 8 N/A
8:55 am 08:55 Cloudy 69 20.6 67 19.5 93 93 N 10 17 30.07 1018 7 11 N/A
9:15 am 09:15 Cloudy with Mist and Fog 68 20.1 66 19.1 94 94 N 12 19 30.10 1019 4 6 N/A
9:35 am 09:35 Cloudy with Mist and Fog 68 20 66 18.8 93 93 N 14 22 30.11 1020 5 8 N/A
9:55 am 09:55 Cloudy with Mist and Fog 68 20 66 18.7 92 92 NNE 15 24 30.11 1020 4 6 N/A
10:15 am 10:15 Cloudy with Mist and Fog 67 19.6 65 18.5 93 93 N 13 20 30.11 1020 3 4 N/A
10:35 am 10:35 Cloudy with Mist and Fog 67 19.5 65 18.5 94 94 NNE 10 17 30.11 1020 2 3 N/A
10:55 am 10:55 Cloudy with Mist and Fog 67 19.5 65 18.5 94 94 NNE 12 19 30.12 1020 3 4 N/A
11:15 am 11:15 Cloudy with Mist and Fog 67 19.3 65 18.2 93 93 NE 12 19 30.12 1020 3 4 N/A
11:35 am 11:35 Cloudy with Mist and Fog 67 19.6 65 18.5 93 93 NE 13 20 30.12 1020 3 4 N/A
11:55 am 11:55 Cloudy with Mist and Fog 69 20.6 65 18.6 88 88 NE 10 17 30.11 1020 3 5 N/A
12:15 pm 12:15 Cloudy with Haze 71 21.7 65 18.6 83 83 NE 13 20 30.10 1019 4 6 N/A
12:35 pm 12:35 Cloudy with Nearby Thunderstorms 72 22.3 65 18.6 80 80 NE 14 22 30.10 1019 4 6 N/A
12:55 pm 12:55 Cloudy with Haze 73 22.6 65 18.6 78 78 NE 12 19 30.10 1019 4 6 N/A
1:15 pm 13:15 Cloudy with Haze 74 23.6 66 18.8 75 75 NNE 12 19 30.10 1019 4 6 N/A
1:35 pm 13:35 Cloudy with Haze 74 23.1 66 18.7 76 76 NE 10 17 30.10 1019 4 6 N/A
1:55 pm 13:55 Cloudy with Haze 73 23 65 18.4 75 75 NNE 13 20 30.10 1019 4 6 N/A
2:15 pm 14:15 Cloudy with Haze 74 23.1 65 18.2 74 74 NNE 9 15 30.10 1019 4 6 N/A
2:35 pm 14:35 Mostly Cloudy with Haze 74 23.2 65 18.5 75 75 NNE 8 13 30.11 1020 4 6 N/A
2:55 pm 14:55 Mostly Cloudy with Haze 74 23.5 65 18.6 74 74 N 8 13 30.10 1019 4 6 N/A
3:15 pm 15:15 Mostly Cloudy with Haze 73 23 65 18.4 75 75 N 7 11 30.10 1019 4 6 N/A
3:35 pm 15:35 Hazy 74 23.2 65 18.6 75 75 N 9 15 30.10 1019 4 6 N/A
3:55 pm 15:55 Hazy 74 23.5 66 18.7 75 75 NNE 7 11 30.10 1019 4 6 N/A
4:15 pm 16:15 Hazy 74 23.5 66 18.7 75 75 NNE 8 13 30.09 1019 4 6 N/A
4:35 pm 16:35 Hazy 75 23.7 67 19.4 77 77 N 10 17 30.09 1019 4 6 N/A
4:55 pm 16:55 Hazy 74 23.6 66 18.9 75 75 NNE 5 7 30.10 1019 4 6 N/A
5:15 pm 17:15 Mostly Cloudy with Haze 74 23.5 66 19.1 76 76 N 10 17 30.09 1019 4 6 N/A
5:35 pm 17:35 Mostly Cloudy with Haze 74 23.3 66 19.1 77 77 N 8 13 30.09 1019 4 6 N/A
5:55 pm 17:55 Hazy 73 23 66 18.7 77 77 N 7 11 30.09 1019 5 8 N/A
6:15 pm 18:15 Hazy 73 23 66 18.9 78 78 NNE 7 11 30.09 1019 5 8 N/A
6:35 pm 18:35 Hazy 73 23 66 18.7 77 77 N 5 7 30.09 1019 5 8 N/A
6:55 pm 18:55 Hazy 73 22.8 66 19 79 79 N 3 6 30.08 1019 4 6 N/A
7:15 pm 19:15 Hazy 73 22.7 66 19 80 80 N 3 6 30.07 1018 4 6 N/A
7:35 pm 19:35 Hazy 72 22.2 66 19.1 83 83 N 5 7 30.07 1018 4 6 N/A
7:55 pm 19:55 Hazy 72 22 67 19.5 86 86 N 3 6 30.07 1018 4 6 N/A
8:15 pm 20:15 Hazy 72 22 67 19.3 85 85 N N/A 30.08 1019 4 6 N/A
8:35 pm 20:35 Partly Cloudy with Mist and Fog 71 21.6 67 19.5 88 88 N 3 6 30.08 1019 5 8 N/A
8:55 pm 20:55 Partly Cloudy with Light Rain 71 21.7 67 19.5 87 87 N N/A 30.08 1019 5 8 N/A
9:15 pm 21:15 Clear with Mist and Fog 71 21.7 67 19.6 88 88 N N/A 30.08 1019 5 8 N/A
9:35 pm 21:35 Clear with Mist and Fog 71 21.5 68 20 91 91 N N/A 30.09 1019 5 8 N/A
9:55 pm 21:55 Clear with Mist and Fog 71 21.5 67 19.5 88 88 W 3 6 30.10 1019 5 8 N/A
10:15 pm 22:15 Partly Cloudy with Mist and Fog 71 21.5 67 19.5 88 88 N N/A 30.10 1019 5 8 N/A
10:35 pm 22:35 Mostly Cloudy with Mist and Fog 70 21 67 19.6 92 92 N N/A 30.11 1020 4 6 N/A
10:55 pm 22:55 Mostly Cloudy with Mist and Fog 70 20.9 67 19.6 92 92 WNW 3 6 30.12 1020 4 6 N/A
11:15 pm 23:15 Partly Cloudy with Mist and Fog 69 20.7 67 19.5 93 93 W 5 7 30.12 1020 4 6 N/A
11:35 pm 23:35 Clear with Mist and Fog 68 20.2 66 19.1 93 93 W 3 6 30.13 1020 4 6 N/A
11:55 pm 23:55 Clear with Mist and Fog 68 20 66 19.1 95 95 N N/A 30.14 1021 3 5 N/A

Powered by AerisWeather